sat.trackr.live / text

‹ back to catalog

STARLINK-31595

NORAD 59273 · 2024-050V

PAYLOAD ACTIVE UNKNOWN

§ Identity

Operator
Country
US
Launch date
2024-03-19
Launch site
AFWTR
Launch vehicle
Mass (kg)
RCS (m²)

Purposes: comms

External: N2YO · Heavens-Above · Gunter

§ Orbital elements

Epoch: 2026-05-25T03:19:11.852832Z

Period
94.11 min
Inclination
53.1597°
Eccentricity
0.0000992
Mean motion
15.30197770 rev/d
Perigee alt
474.5 km
Apogee alt
475.9 km
Semi-major
6,853.4 km
B*
2.5463e-5
RAAN
185.8806°
Arg perigee
85.1659°
Mean anomaly
274.9455°
Rev number
12,225

§ Raw data

STARLINK-315951 59273U 24050V   26145.13833163  .00000395  00000+0  25463-4 0  99932 59273  53.1597 185.8806 0000992  85.1659 274.9455 15.30197770122256

JSON: /api/v1/satellites/59273 · /tle

For live sub-satellite position, see the globe view (requires WebGL).

§ Visibility from observer

Set your observer location to see the next 7 days of passes ≥ 10°. The values pass through the URL so the page stays shareable.

No JS? Fill the form by hand. The geolocation button needs JavaScript.